Flag for Russia Weather past 2 weeks in Kaliningrad, Russia

Now
55 °F

Partly sunny.


Feels Like: 52 °F
Forecast: 45 / 58 °F
Wind: 13 mph from Northwest

Location: Kaliningrad/Khrabrovo Airport

Current Time: May 26, 2015 at 2:16:47 PM

Latest Report: May 26, 2015 at 1:30 PM


Visibility: N/A

Pressure: 29.86 "Hg

Humidity: 82%

Dew point: 50 °F

Location of KaliningradLocation

Historic Weather in Kaliningrad — Graph

°F

Kaliningrad temperature yesterday

Maximum temperature yesterday: 70 °F (at 12:30 PM)
Minimum temperature yesterday: 37 °F (at 4:00 AM)
Average temperature yesterday: 56 °F

Past Weeks' High & Low Weather Summary

 TemperatureHumidityPressure
High73 °F (May 19, 3:00 PM)100% (May 15, 2:00 AM)30.36 "Hg (May 15, 2:00 AM)
Low36 °F (May 19, 12:30 AM)35% (May 12, 4:30 PM)29.62 "Hg (May 19, 2:00 PM)
Average52 °F76%29.96 "Hg
* Reported May 11 1:00 PM — May 26 1:00 PM, Kaliningrad, Weather by CustomWeather, © 2015

Note: Actual official high and low records may vary slightly from our data, if they occured in-between our weather recording intervals... More about our weather records

Advertising

Kaliningrad weather history for previous 24 hours

 ConditionsComfort  
Time TempWeatherWind HumidityBarometerVisibility
1:00 PM
Tue, May 26
57 °FScattered clouds.13 mph77%29.86 "HgN/A
12:30 PM57 °FPartly sunny.15 mph77%29.83 "HgN/A
12:00 PM59 °FPartly sunny.13 mph68%29.83 "HgN/A
11:30 AM57 °FPartly sunny.10 mph72%29.83 "HgN/A
11:00 AM59 °FPartly sunny.13 mph72%29.83 "HgN/A
10:30 AM59 °FPartly sunny.8 mph82%29.80 "HgN/A
10:00 AM61 °FScattered clouds.1 mph83%29.80 "HgN/A
9:30 AM61 °FPassing clouds.3 mph83%29.80 "HgN/A
9:00 AM61 °FPassing clouds.3 mph83%29.80 "HgN/A
8:30 AM61 °FScattered clouds.3 mph83%29.80 "HgN/A
8:00 AM59 °FScattered clouds.3 mph82%29.80 "HgN/A
7:30 AM57 °FScattered clouds.No wind94%29.80 "HgN/A
7:00 AM57 °FPartly sunny.1 mph88%29.80 "HgN/A
6:30 AM55 °FPartly sunny.1 mph94%29.80 "HgN/A
6:00 AM55 °FPassing clouds.No wind94%29.80 "HgN/A
5:30 AM54 °FPassing clouds.1 mph94%29.80 "HgN/A
5:00 AM55 °FPassing clouds.1 mph88%29.80 "HgN/A
4:30 AM54 °FPassing clouds.3 mph94%29.80 "HgN/A
4:00 AM54 °FPassing clouds.3 mph88%29.80 "HgN/A
3:00 AM52 °FPassing clouds.3 mph94%29.80 "HgN/A
2:00 AM52 °FClear.No wind88%29.83 "Hg10 mi
1:00 AM52 °FClear.3 mph88%29.83 "Hg10 mi
12:00 AM52 °FClear.3 mph88%29.83 "Hg10 mi
11:00 PM
Mon, May 25
55 °FClear.1 mph77%29.86 "Hg10 mi
10:30 PM55 °FSunny.6 mph82%29.86 "Hg10 mi
10:00 PM55 °FSunny.3 mph88%29.86 "Hg10 mi
9:30 PM57 °FSunny.3 mph88%29.86 "Hg10 mi
9:00 PM59 °FSunny.1 mph88%29.86 "Hg10 mi
8:30 PM59 °FSunny.1 mph88%29.86 "Hg10 mi
8:00 PM61 °FSunny.1 mph77%29.86 "Hg10 mi
7:30 PM61 °FPassing clouds.3 mph77%29.86 "HgN/A
7:00 PM63 °FSunny.3 mph68%29.86 "Hg10 mi
6:30 PM61 °FSunny.3 mph77%29.89 "Hg10 mi
6:00 PM61 °FSunny.3 mph72%29.89 "Hg10 mi
5:30 PM61 °FSunny.6 mph72%29.89 "Hg10 mi
5:00 PM61 °FPartly sunny.3 mph68%29.89 "HgN/A
4:30 PM61 °FPartly sunny.3 mph72%29.92 "HgN/A
4:00 PM61 °FPartly sunny.3 mph68%29.92 "HgN/A
3:30 PM63 °FPartly sunny.6 mph64%29.92 "HgN/A
3:00 PM64 °FPassing clouds.8 mph60%29.92 "HgN/A
2:30 PM64 °FPassing clouds.8 mph60%29.92 "HgN/A
2:00 PM64 °FPassing clouds.8 mph60%29.92 "HgN/A
Weather by CustomWeather, © 2015

See weather overviewHow to use our weather pages